Flag for Mozambique Weather past 2 weeks in Maputo, Mozambique

Now
75 °F

Clear.


Feels Like: 77 °F
Forecast: 65 / 86 °F
Wind: 9 mph from Northeast

Location: Maputo / Mavalane

Current Time: May 26, 2015 at 5:55:35 PM

Latest Report: May 26, 2015 at 5:00 PM


Visibility: 10 mi

Pressure: 29.98 "Hg

Humidity: 69%

Dew point: 64 °F

Location of MaputoLocation

Historic Weather in Maputo — Graph

°F

Maputo temperature yesterday

Maximum temperature yesterday: 90 °F (at 2:00 PM)
Minimum temperature yesterday: 59 °F (at 5:00 AM)
Average temperature yesterday: 76 °F

Past Weeks' High & Low Weather Summary

 TemperatureHumidityPressure
High93 °F (May 16, 1:00 PM)100% (May 11, 7:00 PM)30.36 "Hg (May 11, 7:00 PM)
Low57 °F (May 12, 6:00 AM)27% (May 25, 2:00 PM)29.86 "Hg (May 14, 1:00 PM)
Average74 °F73%30.11 "Hg
* Reported May 11 4:00 PM — May 26 4:00 PM, Maputo, Weather by CustomWeather, © 2015

Note: Actual official high and low records may vary slightly from our data, if they occured in-between our weather recording intervals... More about our weather records

Advertising

Maputo weather history for previous 24 hours

 ConditionsComfort  
Time TempWeatherWind HumidityBarometerVisibility
4:00 PM
Tue, May 26
79 °FSunny.9 mph54%30.01 "Hg10 mi
2:00 PM82 °FClear.9 mph40%29.98 "Hg5 mi
1:00 PM84 °FSunny.3 mph33%30.01 "Hg10 mi
12:00 PM81 °FSunny.3 mph39%30.01 "Hg10 mi
11:00 AM77 °FSunny.5 mph44%30.04 "Hg10 mi
10:00 AM73 °FSunny.6 mph47%30.07 "Hg10 mi
9:00 AM68 °FSunny.7 mph64%30.07 "Hg10 mi
8:00 AM64 °FSunny.9 mph73%30.04 "Hg10 mi
7:00 AM61 °FSunny.6 mph83%30.04 "Hg10 mi
6:00 AM61 °FPassing clouds.3 mph83%30.01 "HgN/A
4:00 AM63 °FClear.9 mph83%29.98 "Hg10 mi
12:00 AM66 °FClear.5 mph64%29.98 "Hg10 mi
11:00 PM
Mon, May 25
68 °FClear.5 mph60%29.98 "Hg10 mi
9:00 PM70 °FClear.8 mph60%29.98 "Hg10 mi
8:00 PM75 °FClear.9 mph47%29.95 "Hg10 mi
7:00 PM77 °FClear.9 mph47%29.95 "Hg10 mi
6:00 PM79 °FClear.9 mph45%29.95 "Hg10 mi
5:00 PM81 °FClear.7 mph37%29.92 "Hg10 mi
Weather by CustomWeather, © 2015

See weather overviewHow to use our weather pages